HST (20580 NORAD) Tracking and Keplerian Element Data

This shows tracking and keplerian element data for the satellite.

Feedback or suggestion? Click here.




ElementValue
Catalog20580
NameHST
Epoch Orbit47493
Epoch Day294.92012058
Epoch Year2020
RAAN209.7824
Inclination28.4691
Eccentricity0.0002639
Argument of Perigee7.4235
Mean Anonmoly75.9607
Mean Motion15.09453458
Decay Rate5.74E-06
L11 20580U 90037B 20294.92012058 .00000574 00000-0 23888-4 0 9997
L22 20580 28.4691 209.7824 0002639 7.4235 75.9607 15.09453458474935

Live tracking and technical data element details for HST (NORAD 20580). HST can be tracked NOW for your location showing map with azimuth and elevation plus other details from your city location.

Track the satellite on the map from your city or location and see movement details for azimuth, elevation, latitude, longitude, range, height, and movement on the map or in text.







IsCatalogInMostPopularTable: catalog: 20580, numindb: 685
Update: records affected: 1



GetName: 20580 HST

Hit Count: updated at: Thu, 22 Oct 2020 04:05:36 GMT